Regional Weather Roundup
Issued by NWS

Home | Current Version | Previous Version | Text Only | Print | Product List | Glossary Off
Versions: 1 2 3 4 5 6 7 8 9 10 11 12 13 14 15 16 17 18 19 20 21 22 23 24 25 26 27 28

000
ASUS45 KCYS 200910
RWRWY

WYOMING REGIONAL WEATHER ROUNDUP
NATIONAL WEATHER SERVICE CHEYENNE WY
200 AM MST MON NOV 20 2017

NOTE:  "FAIR" INDICATES FEW OR NO CLOUDS BELOW 12,000 FEET
WITH NO SIGNIFICANT WEATHER AND/OR OBSTRUCTIONS TO VISIBILITY.

WYZ001-201000-
YELLOWSTONE NATIONAL PARK

CITY           SKY/WX    TMP DP  RH WIND       PRES   REMARKS
LK YELLOWSTONE   N/A     14  13  95 CALM      29.98S
W YELLOWSTONE  NOT AVBL

$$
WYZ002>013-054>058-071-098>099-201000-
NORTHERN WYOMING

CITY           SKY/WX    TMP DP  RH WIND       PRES   REMARKS
JACKSON        FAIR      17  14  88 NE3         N/A
CODY           FAIR      49   1  14 SW12G21   29.77S
GREYBULL       FAIR      24  21  88 CALM      29.77F
WORLAND        FAIR      24  22  91 VRB3      29.76F
SHERIDAN       FAIR      42  18  37 VRB3      29.65R
BUFFALO        FAIR      42  16  34 N9        29.68F
GILLETTE       FAIR      44  10  25 SW23      29.66F
HULETT         FAIR      43  12  28 SW14      29.69F
NEWCASTLE      FAIR      32  18  55 NE5       29.76S WCI  27

$$
WYZ014>020-022>026-101>103-201000-
CENTRAL WYOMING

CITY           SKY/WX    TMP DP  RH WIND       PRES   REMARKS
BIG PINEY      FAIR       5   2  87 N6        30.04F WCI  -6
PINEDALE       FAIR      12  10  92 CALM      30.05S
DUBOIS         FAIR      32   7  34 NW25G31   29.88F WCI  19
LANDER         FAIR      34   7  32 SW5       29.84F WCI  30
RIVERTON       FAIR      28  11  48 CALM      29.84F
CASPER         FAIR      39  12  33 SW22      29.86R WCI  29
DOUGLAS        FAIR      41  14  33 W9        29.78F

$$
WYZ021-027>030-104>119-201000-
SOUTHERN WYOMING

CITY           SKY/WX    TMP DP  RH WIND       PRES   REMARKS
EVANSTON       FAIR      25  14  63 SW14      30.05F WCI  13
KEMMERER       FAIR      25  10  54 W9        30.04F WCI  15
FORT BRIDGER   FAIR      25  11  54 W9        30.06F WCI  16
ROCK SPRINGS   FAIR      22  13  68 W8        30.04F WCI  12
DIXON          FAIR      16  11  82 CALM      30.13S
RAWLINS        FAIR      34  14  43 SW25G31   29.97F WCI  21
SARATOGA       FAIR      28  14  54 SE6       30.05S WCI  22
LARAMIE        FAIR      34   7  32 SW17G31   29.97R WCI  23
CHEYENNE       FAIR      46   0  14 SW15G32   29.89S
TORRINGTON     FAIR      48  10  21 W17G26    29.78F
PINE BLUFFS    FAIR      45   0  15 MISG      29.84S

$$




USA.gov is the U.S. government's official web portal to all federal, state and local government web resources and services.